OAS8417 SKCL-SKBO

Flight info

Callsign OAS8417
Flight time 0h 31m
Altitude 23000
Route ULQ1K ULQ W1 TOLIM TOLIM5E
Aircraft B38M/M-SDE1FGHILORVWXY/HB1

Departure

Time 2026-04-24 02:06
Airport Alfonso Bonilla Aragon International Airport (SKCL)

Arrival

Time 2026-04-24 02:38
Airport El Dorado International Airport (SKBO)
Time Latitude Longitude Altitude Speed Heading
2026-04-24 01:33 3.53734 -76.38636 3165 ft 0 kts 190°
2026-04-24 01:52 3.53749 -76.38632 3165 ft 4 kts 194°
2026-04-24 01:53 3.53775 -76.38625 3166 ft 4 kts 200°
2026-04-24 01:53 3.53800 -76.38614 3166 ft 4 kts 207°
2026-04-24 01:53 3.53824 -76.38601 3165 ft 4 kts 214°
2026-04-24 01:53 3.53845 -76.38584 3166 ft 4 kts 222°
2026-04-24 01:54 3.53865 -76.38565 3167 ft 4 kts 225°
2026-04-24 01:54 3.53875 -76.38555 3165 ft 0 kts 220°
2026-04-24 02:00 3.53866 -76.38563 3167 ft 4 kts 220°
2026-04-24 02:01 3.53836 -76.38583 3166 ft 6 kts 198°
2026-04-24 02:01 3.53784 -76.38579 3165 ft 9 kts 153°
2026-04-24 02:01 3.53732 -76.38542 3165 ft 10 kts 144°
2026-04-24 02:01 3.53671 -76.38496 3165 ft 12 kts 143°
2026-04-24 02:02 3.53602 -76.38455 3164 ft 9 kts 174°
2026-04-24 02:02 3.53542 -76.38464 3164 ft 9 kts 191°
2026-04-24 02:02 3.53472 -76.38478 3164 ft 11 kts 190°
2026-04-24 02:02 3.53390 -76.38493 3164 ft 13 kts 190°
2026-04-24 02:03 3.53192 -76.38528 3164 ft 16 kts 191°
2026-04-24 02:03 3.53089 -76.38546 3165 ft 14 kts 189°
2026-04-24 02:03 3.53025 -76.38554 3165 ft 6 kts 171°
2026-04-24 02:04 3.52998 -76.38525 3164 ft 6 kts 104°
2026-04-24 02:04 3.52987 -76.38475 3164 ft 7 kts 93°
2026-04-24 02:04 3.52993 -76.38424 3163 ft 7 kts 88°
2026-04-24 02:04 3.52997 -76.38398 3163 ft 1 kts 51°
2026-04-24 02:05 3.53002 -76.38396 3163 ft 2 kts 23°
2026-04-24 02:05 3.53006 -76.38395 3165 ft 0 kts 11°
2026-04-24 02:05 3.53036 -76.38389 3199 ft 20 kts 11°
2026-04-24 02:06 3.53411 -76.38326 3164 ft 87 kts
2026-04-24 02:06 3.54201 -76.38189 3168 ft 142 kts
2026-04-24 02:06 3.55305 -76.38012 3400 ft 170 kts
2026-04-24 02:06 3.56563 -76.37808 3826 ft 190 kts
2026-04-24 02:07 3.57844 -76.37579 4702 ft 185 kts 10°
2026-04-24 02:07 3.59135 -76.37346 5339 ft 193 kts
2026-04-24 02:07 3.60509 -76.37102 5842 ft 210 kts
2026-04-24 02:07 3.61999 -76.36839 6323 ft 228 kts
2026-04-24 02:08 3.63567 -76.36564 7122 ft 229 kts 11°
2026-04-24 02:08 3.65132 -76.36118 7771 ft 241 kts 18°
2026-04-24 02:08 3.66775 -76.35575 8315 ft 257 kts 18°
2026-04-24 02:08 3.68541 -76.35006 8824 ft 275 kts 17°
2026-04-24 02:09 3.70425 -76.34408 9298 ft 294 kts 17°
2026-04-24 02:09 3.72408 -76.33785 9991 ft 300 kts 17°
2026-04-24 02:09 3.74416 -76.33159 10742 ft 307 kts 17°
2026-04-24 02:09 3.76503 -76.32509 11252 ft 322 kts 17°
2026-04-24 02:10 3.78684 -76.31831 11832 ft 333 kts 17°
2026-04-24 02:10 3.80899 -76.31143 12695 ft 334 kts 17°
2026-04-24 02:10 3.83136 -76.30448 13518 ft 339 kts 16°
2026-04-24 02:10 3.85405 -76.29743 14279 ft 343 kts 16°
2026-04-24 02:11 3.87701 -76.29029 15025 ft 348 kts 16°
2026-04-24 02:11 3.89992 -76.28317 15761 ft 352 kts 17°
2026-04-24 02:11 3.92348 -76.27585 16475 ft 357 kts 17°
2026-04-24 02:11 3.94732 -76.26844 17177 ft 361 kts 17°
2026-04-24 02:12 3.97145 -76.26095 17853 ft 366 kts 17°
2026-04-24 02:12 3.99589 -76.25335 18488 ft 370 kts 17°
2026-04-24 02:12 4.02056 -76.24569 19091 ft 373 kts 17°
2026-04-24 02:12 4.04541 -76.23796 19703 ft 375 kts 17°
2026-04-24 02:13 4.06950 -76.22802 20290 ft 377 kts 31°
2026-04-24 02:13 4.08960 -76.21114 20879 ft 380 kts 50°
2026-04-24 02:13 4.10377 -76.18878 21434 ft 383 kts 65°
2026-04-24 02:13 4.11414 -76.16411 21986 ft 386 kts 67°
2026-04-24 02:14 4.12431 -76.13904 22542 ft 389 kts 68°
2026-04-24 02:14 4.13435 -76.11376 23025 ft 394 kts 68°
2026-04-24 02:14 4.14441 -76.08805 23054 ft 397 kts 68°
2026-04-24 02:14 4.15443 -76.06225 23082 ft 398 kts 68°
2026-04-24 02:15 4.16443 -76.03638 23084 ft 398 kts 68°
2026-04-24 02:15 4.17442 -76.01052 23084 ft 398 kts 68°
2026-04-24 02:15 4.18440 -75.98467 23087 ft 398 kts 68°
2026-04-24 02:15 4.19440 -75.95877 23093 ft 398 kts 68°
2026-04-24 02:16 4.20439 -75.93291 23093 ft 398 kts 68°
2026-04-24 02:16 4.21447 -75.90707 23097 ft 398 kts 68°
2026-04-24 02:16 4.22119 -75.89004 23099 ft 398 kts 68°
2026-04-24 02:16 4.23478 -75.85553 23103 ft 398 kts 68°
2026-04-24 02:17 4.24494 -75.82969 23100 ft 398 kts 68°
2026-04-24 02:17 4.25165 -75.81263 23105 ft 398 kts 68°
2026-04-24 02:17 4.26180 -75.78681 23109 ft 398 kts 68°
2026-04-24 02:17 4.27196 -75.76099 23106 ft 398 kts 68°
2026-04-24 02:18 4.28210 -75.73519 23109 ft 398 kts 68°
2026-04-24 02:18 4.29224 -75.70940 23108 ft 398 kts 68°
2026-04-24 02:18 4.30238 -75.68360 23110 ft 398 kts 68°
2026-04-24 02:18 4.31253 -75.65779 23112 ft 398 kts 68°
2026-04-24 02:19 4.32269 -75.63192 23115 ft 398 kts 68°
2026-04-24 02:19 4.33283 -75.60613 23115 ft 398 kts 68°
2026-04-24 02:19 4.34300 -75.58025 23125 ft 399 kts 68°
2026-04-24 02:19 4.35313 -75.55445 23128 ft 399 kts 68°
2026-04-24 02:20 4.36330 -75.52858 23134 ft 399 kts 68°
2026-04-24 02:20 4.37349 -75.50274 23143 ft 399 kts 66°
2026-04-24 02:20 4.38620 -75.47817 23148 ft 398 kts 59°
2026-04-24 02:20 4.39965 -75.45393 23148 ft 398 kts 60°
2026-04-24 02:21 4.41312 -75.42966 23123 ft 398 kts 60°
2026-04-24 02:21 4.42658 -75.40546 23118 ft 398 kts 60°
2026-04-24 02:21 4.44006 -75.38121 23103 ft 398 kts 60°
2026-04-24 02:21 4.45355 -75.35695 23088 ft 398 kts 60°
2026-04-24 02:22 4.46697 -75.33282 23069 ft 398 kts 60°
2026-04-24 02:22 4.48050 -75.30848 23065 ft 398 kts 60°
2026-04-24 02:22 4.49399 -75.28422 23045 ft 398 kts 60°
2026-04-24 02:22 4.50746 -75.26000 23039 ft 398 kts 60°
2026-04-24 02:23 4.52095 -75.23573 23027 ft 396 kts 60°
2026-04-24 02:23 4.53406 -75.21214 23065 ft 379 kts 60°
2026-04-24 02:23 4.54660 -75.18958 23090 ft 362 kts 60°
2026-04-24 02:23 4.55861 -75.16795 23071 ft 349 kts 60°
2026-04-24 02:24 4.57032 -75.14688 22928 ft 349 kts 60°
2026-04-24 02:24 4.58230 -75.12533 22650 ft 357 kts 60°
2026-04-24 02:24 4.59442 -75.10350 22334 ft 360 kts 60°
2026-04-24 02:24 4.60664 -75.08150 21943 ft 361 kts 60°
2026-04-24 02:25 4.61885 -75.05952 21492 ft 361 kts 60°
2026-04-24 02:25 4.63107 -75.03753 21119 ft 360 kts 60°
2026-04-24 02:25 4.64306 -75.01594 20744 ft 359 kts 60°
2026-04-24 02:25 4.65516 -74.99414 20360 ft 357 kts 60°
2026-04-24 02:26 4.66720 -74.97246 19960 ft 355 kts 60°
2026-04-24 02:26 4.67919 -74.95087 19570 ft 353 kts 60°
2026-04-24 02:26 4.69111 -74.92939 19168 ft 351 kts 60°
2026-04-24 02:26 4.70296 -74.90805 18787 ft 350 kts 60°
2026-04-24 02:27 4.71480 -74.88672 18225 ft 351 kts 60°
2026-04-24 02:27 4.72658 -74.86550 17632 ft 345 kts 60°
2026-04-24 02:27 4.73819 -74.84459 17162 ft 343 kts 60°
2026-04-24 02:27 4.75014 -74.82404 16783 ft 338 kts 53°
2026-04-24 02:28 4.76621 -74.80763 16819 ft 322 kts 42°
2026-04-24 02:28 4.77964 -74.79001 16751 ft 323 kts 68°
2026-04-24 02:28 4.78522 -74.76811 16686 ft 328 kts 78°
2026-04-24 02:28 4.79118 -74.74587 16581 ft 332 kts 73°
2026-04-24 02:29 4.79823 -74.72383 16489 ft 332 kts 71°
2026-04-24 02:29 4.80579 -74.70195 16401 ft 332 kts 70°
2026-04-24 02:29 4.81361 -74.68022 16317 ft 332 kts 70°
2026-04-24 02:29 4.82156 -74.65855 16153 ft 331 kts 69°
2026-04-24 02:30 4.82961 -74.63688 15859 ft 331 kts 69°
2026-04-24 02:30 4.83768 -74.61534 15503 ft 330 kts 69°
2026-04-24 02:30 4.84578 -74.59378 15140 ft 330 kts 69°
2026-04-24 02:30 4.85384 -74.57233 14765 ft 328 kts 69°
2026-04-24 02:31 4.86186 -74.55102 14388 ft 326 kts 69°
2026-04-24 02:31 4.86985 -74.52979 14002 ft 324 kts 69°
2026-04-24 02:31 4.87780 -74.50867 13574 ft 323 kts 69°
2026-04-24 02:31 4.88569 -74.48769 13239 ft 318 kts 69°
2026-04-24 02:32 4.89335 -74.46732 13095 ft 307 kts 69°
2026-04-24 02:32 4.90036 -74.44763 12975 ft 296 kts 77°
2026-04-24 02:32 4.90089 -74.42759 12941 ft 285 kts 103°
2026-04-24 02:32 4.89282 -74.40968 12921 ft 285 kts 126°
2026-04-24 02:33 4.88043 -74.39402 12926 ft 288 kts 128°
2026-04-24 02:33 4.86809 -74.37803 12649 ft 292 kts 127°
2026-04-24 02:33 4.85597 -74.36195 12407 ft 287 kts 127°
2026-04-24 02:33 4.84406 -74.34615 12174 ft 281 kts 127°
2026-04-24 02:34 4.83266 -74.33102 12064 ft 268 kts 127°
2026-04-24 02:34 4.82142 -74.31613 11817 ft 264 kts 127°
2026-04-24 02:34 4.81052 -74.30166 11512 ft 263 kts 127°
2026-04-24 02:34 4.79957 -74.28713 11213 ft 260 kts 127°
2026-04-24 02:35 4.78858 -74.27257 10914 ft 257 kts 127°
2026-04-24 02:35 4.77788 -74.25837 10592 ft 252 kts 127°
2026-04-24 02:35 4.76777 -74.24497 10299 ft 236 kts 126°
2026-04-24 02:35 4.75828 -74.23239 10024 ft 215 kts 126°
2026-04-24 02:36 4.74977 -74.22113 9757 ft 190 kts 126°
2026-04-24 02:36 4.74223 -74.21113 9502 ft 170 kts 126°
2026-04-24 02:36 4.73519 -74.20179 9255 ft 168 kts 126°
2026-04-24 02:36 4.72814 -74.19245 9008 ft 168 kts 127°
2026-04-24 02:37 4.72110 -74.18311 8745 ft 168 kts 127°
2026-04-24 02:37 4.71401 -74.17380 8492 ft 167 kts 127°
2026-04-24 02:37 4.70696 -74.16456 8369 ft 162 kts 125°
2026-04-24 02:37 4.70119 -74.15683 8366 ft 107 kts 127°
2026-04-24 02:38 4.69790 -74.15248 8368 ft 40 kts 127°
2026-04-24 02:38 4.69714 -74.15042 8367 ft 30 kts 98°
2026-04-24 02:38 4.69700 -74.14937 8367 ft 6 kts 97°
2026-04-24 02:38 4.69696 -74.14894 8367 ft 6 kts 85°
2026-04-24 02:39 4.69707 -74.14856 8367 ft 5 kts 63°
2026-04-24 02:39 4.69730 -74.14826 8368 ft 5 kts 40°
2026-04-24 02:39 4.69759 -74.14803 8368 ft 6 kts 38°
2026-04-24 02:39 4.69795 -74.14776 8368 ft 9 kts 36°
2026-04-24 02:40 4.69852 -74.14734 8368 ft 11 kts 36°
2026-04-24 02:40 4.69914 -74.14688 8368 ft 11 kts 37°
2026-04-24 02:40 4.69977 -74.14640 8368 ft 8 kts 38°
2026-04-24 02:40 4.70016 -74.14609 8368 ft 7 kts 38°
2026-04-24 02:41 4.70041 -74.14580 8369 ft 3 kts 85°
2026-04-24 02:41 4.70036 -74.14567 8368 ft 3 kts 118°
2026-04-24 02:41 4.70018 -74.14541 8369 ft 5 kts 127°
2026-04-24 02:41 4.69993 -74.14508 8368 ft 7 kts 127°
2026-04-24 02:42 4.69964 -74.14469 8368 ft 7 kts 127°
2026-04-24 02:42 4.69932 -74.14427 8369 ft 8 kts 127°
2026-04-24 02:42 4.69919 -74.14413 8368 ft 0 kts 144°
2026-04-24 02:42 4.69917 -74.14414 8368 ft 0 kts 175°
2026-04-24 02:43 4.69912 -74.14417 8368 ft 2 kts 207°
2026-04-24 02:43 4.69900 -74.14427 8368 ft 3 kts 224°
2026-04-24 02:43 4.69887 -74.14440 8368 ft 2 kts 225°
2026-04-24 02:43 4.69880 -74.14448 8368 ft 0 kts 225°